Meteo Giornale » Osservazioni meteo Italia » Brescia-Ghedi

ore: 12:55 - Osservazioni Meteo Brescia-Ghedi
Lat. 45° 25' N Lon. 10° 17' E Alt. 102 metri s.l.m.

poco_nuvoloso Europe/Rome

21 °C

Poco Nuvoloso

Temp. 24 Ore

14 °C

21 °C

Nord

5.5 Km/h

Dew point 15 °C

Umidità 68 %

Visibilità  7 Km

Il sole sorge alle ore 07:38

Il sole tramonta alle ore 18:29

Data e Ora Cielo e Fenomeni T °C DP °C Um. % Pres. hPa Vis. km Vento km/h
Oggi h: 12:55 poco_nuvoloso Poco Nuvoloso 21 15 68 1017 7 N 5.5
Oggi h: 11:55 nuvoloso Nuvoloso 19 15 77 1017 6 N 5.5
Oggi h: 10:55 foschia Foschia 18 16 88 1017 5 N 3.7
Oggi h: 09:55 foschia Foschia 17 15 88 1017 5 N 3.7
Oggi h: 08:55 foschia Foschia 16 15 93 1017 5 N 1.8
Oggi h: 07:55 foschia Foschia 16 15 93 1017 5 N 3.7
Oggi h: 06:55 foschia Foschia 16 15 93 1017 5 N 1.8
Oggi h: 05:55 foschia Foschia 15 15 100 1017 5 N 1.8
Oggi h: 04:55 foschia Foschia 15 15 100 1017 5 N 1.8
Oggi h: 03:55 foschia Foschia 14 14 100 1017 5 N 5.5
Oggi h: 02:55 foschia Foschia 14 14 100 1018 5 N 1.8
Oggi h: 01:55 sereno Sereno 15 14 93 1018 6 N 3.7
Oggi h: 00:55 sereno Sereno 15 14 93 1019 6 N 5.5
Ieri h: 23:55 sereno Sereno 15 15 100 1019 6 N/NE 7.4
Ieri h: 22:55 sereno Sereno 15 14 93 1019 6 N 1.8
Ieri h: 21:55 sereno Sereno 16 14 87 1019 8 N 3.7
Ieri h: 20:55 sereno Sereno 17 14 82 1018 10 N 3.7
Ieri h: 19:55 nuvoloso Nuvoloso 18 13 72 1018 10 N 3.7
Ieri h: 18:55 nuvoloso Nuvoloso 19 14 72 1018 10 N 1.8
Ieri h: 16:55 nuvoloso Nuvoloso 21 13 60 1018 10 E 9.3